Location: Hertford
(51.8000°N, 0.0667°W)
Time: 21:32:24
(UTC+00:00)

Meteor 1-24 Rocket - Pass Details

Date: 18 September 2020
Orbit: 790 x 927 km, 81.2° (Epoch: 30 October)

Event Time Altitude Azimuth Distance (km) Brightness Sun altitude
Rises 20:47:06 0° 345° (NNW) 3,342 7.6 -23.8°
Reaches altitude 10° 20:49:28 10° 344° (NNW) 2,421 6.8 -24.1°
Maximum altitude 20:54:55 74° 261° (W) 875 3.8 -24.8°
Enters shadow 20:56:31 47° 190° (S) 1,104 4.0 -25.0°
